contact:dominique.lefevre@mio.osupytheas.fr, maurice.libes@osupytheas.fr, didier.mallarino@osupytheas.fr
Project:EMSO http://www.emso-fr.org/EMSO-France
Depth: 2436.0 m
Title:EMSO Ligure Ouest : Data MII capteur MICROCAT
DateTime_Computer,Latitude,Longitude,Temperature,Conductivity,Pressure,DateTime_Instrument
DateTime_Computer,Latitude,Longitude,degC,S m-1,dbar,DateTime_Instrument
2020-09-08T00:02:17Z,42.805,6.029,13.2974,4.59983,2470.217,2020-9-08T02:03:08Z
2020-09-08T00:05:19Z,42.805,6.029,13.2968,4.59977,2470.194,2020-9-08T02:06:10Z
2020-09-08T00:08:23Z,42.805,6.029,13.2971,4.59981,2470.194,2020-9-08T02:09:14Z
2020-09-08T00:11:26Z,42.805,6.029,13.2970,4.59979,2470.133,2020-9-08T02:12:17Z
2020-09-08T00:14:27Z,42.805,6.029,13.2974,4.59978,2470.203,2020-9-08T02:15:18Z
2020-09-08T00:17:32Z,42.805,6.029,13.2973,4.59978,2470.156,2020-9-08T02:18:23Z
2020-09-08T00:20:35Z,42.805,6.029,13.2974,4.59978,2470.143,2020-9-08T02:21:26Z
2020-09-08T00:23:40Z,42.805,6.029,13.2974,4.59976,2470.217,2020-9-08T02:24:31Z
2020-09-08T00:26:45Z,42.805,6.029,13.2973,4.59976,2470.18,2020-9-08T02:27:35Z
2020-09-08T00:29:46Z,42.805,6.029,13.2968,4.59976,2470.133,2020-9-08T02:30:37Z
2020-09-08T00:32:48Z,42.805,6.029,13.2971,4.59978,2470.147,2020-9-08T02:33:39Z
2020-09-08T00:35:51Z,42.805,6.029,13.2973,4.59975,2470.18,2020-9-08T02:36:42Z
2020-09-08T00:38:56Z,42.805,6.029,13.2974,4.59979,2470.194,2020-9-08T02:39:47Z
2020-09-08T00:41:59Z,42.805,6.029,13.2974,4.59978,2470.171,2020-9-08T02:42:50Z
2020-09-08T00:45:03Z,42.805,6.029,13.2970,4.59974,2470.143,2020-9-08T02:45:54Z
2020-09-08T00:48:06Z,42.805,6.029,13.2974,4.59975,2470.147,2020-9-08T02:48:57Z
2020-09-08T00:51:08Z,42.805,6.029,13.2969,4.59975,2470.156,2020-9-08T02:51:59Z
2020-09-08T00:54:10Z,42.805,6.029,13.2974,4.59976,2470.133,2020-9-08T02:55:01Z
2020-09-08T00:57:15Z,42.805,6.029,13.2969,4.59975,2470.119,2020-9-08T02:58:06Z
2020-09-08T01:00:19Z,42.805,6.029,13.2971,4.59975,2470.156,2020-9-08T03:01:10Z
2020-09-08T01:03:23Z,42.805,6.029,13.2973,4.59976,2470.156,2020-9-08T03:04:14Z
2020-09-08T01:06:24Z,42.805,6.029,13.2974,4.59973,2470.156,2020-9-08T03:07:15Z
2020-09-08T01:09:26Z,42.805,6.029,13.2971,4.59976,2470.166,2020-9-08T03:10:17Z
2020-09-08T01:12:29Z,42.805,6.029,13.2971,4.59979,2470.156,2020-9-08T03:13:20Z
2020-09-08T01:15:33Z,42.805,6.029,13.2968,4.59976,2470.156,2020-9-08T03:16:24Z
2020-09-08T01:18:38Z,42.805,6.029,13.2974,4.59975,2470.147,2020-9-08T03:19:29Z
2020-09-08T01:21:39Z,42.805,6.029,13.2968,4.59973,2470.133,2020-9-08T03:22:30Z
2020-09-08T01:24:42Z,42.805,6.029,13.2976,4.59975,2470.171,2020-9-08T03:25:33Z
2020-09-08T01:27:43Z,42.805,6.029,13.2973,4.59976,2470.156,2020-9-08T03:28:35Z
2020-09-08T01:30:45Z,42.805,6.029,13.2970,4.59976,2470.124,2020-9-08T03:31:36Z
2020-09-08T01:33:47Z,42.805,6.029,13.2972,4.59978,2470.124,2020-9-08T03:34:38Z
2020-09-08T01:36:52Z,42.805,6.029,13.2973,4.59974,2470.133,2020-9-08T03:37:43Z
2020-09-08T01:39:55Z,42.805,6.029,13.2970,4.59973,2470.11,2020-9-08T03:40:46Z
2020-09-08T01:42:58Z,42.805,6.029,13.2970,4.59973,2470.11,2020-9-08T03:43:49Z
2020-09-08T01:46:00Z,42.805,6.029,13.2969,4.59975,2470.133,2020-9-08T03:46:51Z
2020-09-08T01:49:03Z,42.805,6.029,13.2972,4.59974,2470.147,2020-9-08T03:49:55Z
2020-09-08T01:52:05Z,42.805,6.029,13.2972,4.59973,2470.147,2020-9-08T03:52:57Z
2020-09-08T01:55:09Z,42.805,6.029,13.2971,4.59974,2470.1,2020-9-08T03:56:00Z
2020-09-08T01:58:11Z,42.805,6.029,13.2971,4.59975,2470.11,2020-9-08T03:59:02Z
2020-09-08T02:01:15Z,42.805,6.029,13.2972,4.59973,2470.11,2020-9-08T04:02:06Z
2020-09-08T02:04:16Z,42.805,6.029,13.2971,4.59977,2470.11,2020-9-08T04:05:07Z
2020-09-08T02:07:20Z,42.805,6.029,13.2971,4.59976,2470.11,2020-9-08T04:08:11Z
2020-09-08T02:10:24Z,42.805,6.029,13.2970,4.59975,2470.1,2020-9-08T04:11:15Z
2020-09-08T02:13:28Z,42.805,6.029,13.2968,4.59976,2470.087,2020-9-08T04:14:19Z
2020-09-08T02:16:32Z,42.805,6.029,13.2970,4.59974,2470.11,2020-9-08T04:17:23Z
2020-09-08T02:19:34Z,42.805,6.029,13.2964,4.59974,2470.124,2020-9-08T04:20:25Z
2020-09-08T02:22:37Z,42.805,6.029,13.2970,4.59974,2470.11,2020-9-08T04:23:28Z
2020-09-08T02:25:40Z,42.805,6.029,13.2971,4.59972,2470.156,2020-9-08T04:26:31Z
2020-09-08T02:28:41Z,42.805,6.029,13.2972,4.59976,2470.087,2020-9-08T04:29:33Z
2020-09-08T02:31:45Z,42.805,6.029,13.2970,4.59973,2470.11,2020-9-08T04:32:36Z
2020-09-08T02:34:48Z,42.805,6.029,13.2970,4.59976,2470.147,2020-9-08T04:35:39Z
2020-09-08T02:37:52Z,42.805,6.029,13.2973,4.59980,2470.087,2020-9-08T04:38:43Z
2020-09-08T02:40:56Z,42.805,6.029,13.2971,4.59974,2470.077,2020-9-08T04:41:47Z
2020-09-08T02:43:58Z,42.805,6.029,13.2971,4.59973,2470.11,2020-9-08T04:44:49Z
2020-09-08T02:47:01Z,42.805,6.029,13.2968,4.59978,2470.11,2020-9-08T04:47:52Z
2020-09-08T02:50:04Z,42.805,6.029,13.2972,4.59974,2470.1,2020-9-08T04:50:55Z
2020-09-08T02:53:08Z,42.805,6.029,13.2969,4.59975,2470.1,2020-9-08T04:53:59Z
2020-09-08T02:56:09Z,42.805,6.029,13.2967,4.59977,2470.087,2020-9-08T04:57:00Z
2020-09-08T02:59:10Z,42.805,6.029,13.2975,4.59975,2470.087,2020-9-08T05:00:01Z
2020-09-08T03:02:12Z,42.805,6.029,13.2973,4.59976,2470.1,2020-9-08T05:03:03Z
2020-09-08T03:05:15Z,42.805,6.029,13.2970,4.59974,2470.1,2020-9-08T05:06:06Z
2020-09-08T03:08:19Z,42.805,6.029,13.2972,4.59974,2470.096,2020-9-08T05:09:10Z
2020-09-08T03:11:20Z,42.805,6.029,13.2971,4.59975,2470.124,2020-9-08T05:12:11Z
2020-09-08T03:14:25Z,42.805,6.029,13.2971,4.59976,2470.133,2020-9-08T05:15:16Z
2020-09-08T03:17:27Z,42.805,6.029,13.2974,4.59972,2470.11,2020-9-08T05:18:19Z
2020-09-08T03:20:32Z,42.805,6.029,13.2967,4.59975,2470.087,2020-9-08T05:21:23Z
2020-09-08T03:23:33Z,42.805,6.029,13.2972,4.59975,2470.063,2020-9-08T05:24:24Z
2020-09-08T03:26:36Z,42.805,6.029,13.2974,4.59975,2470.087,2020-9-08T05:27:27Z
2020-09-08T03:29:38Z,42.805,6.029,13.2974,4.59973,2470.087,2020-9-08T05:30:29Z
2020-09-08T03:32:41Z,42.805,6.029,13.2969,4.59973,2470.087,2020-9-08T05:33:32Z
2020-09-08T03:35:44Z,42.805,6.029,13.2972,4.59972,2470.11,2020-9-08T05:36:35Z
2020-09-08T03:38:45Z,42.805,6.029,13.2968,4.59973,2470.063,2020-9-08T05:39:36Z
2020-09-08T03:41:49Z,42.805,6.029,13.2973,4.59973,2470.063,2020-9-08T05:42:41Z
2020-09-08T03:44:53Z,42.805,6.029,13.2974,4.59976,2470.11,2020-9-08T05:45:44Z
2020-09-08T03:47:56Z,42.805,6.029,13.2973,4.59973,2470.11,2020-9-08T05:48:47Z
2020-09-08T03:50:59Z,42.805,6.029,13.2968,4.59974,2470.04,2020-9-08T05:51:50Z
2020-09-08T03:54:01Z,42.805,6.029,13.2969,4.59973,2470.063,2020-9-08T05:54:52Z
2020-09-08T03:57:05Z,42.805,6.029,13.2972,4.59973,2470.087,2020-9-08T05:57:56Z
2020-09-08T04:00:07Z,42.805,6.029,13.2971,4.59973,2470.063,2020-9-08T06:00:58Z
2020-09-08T04:03:10Z,42.805,6.029,13.2974,4.59973,2470.11,2020-9-08T06:04:01Z
2020-09-08T04:06:13Z,42.805,6.029,13.2973,4.59973,2470.087,2020-9-08T06:07:05Z
2020-09-08T04:09:17Z,42.805,6.029,13.2970,4.59975,2470.04,2020-9-08T06:10:09Z
2020-09-08T04:12:19Z,42.805,6.029,13.2971,4.59976,2470.1,2020-9-08T06:13:10Z
2020-09-08T04:15:23Z,42.805,6.029,13.2969,4.59978,2470.087,2020-9-08T06:16:14Z
2020-09-08T04:18:26Z,42.805,6.029,13.2976,4.59978,2470.11,2020-9-08T06:19:17Z
2020-09-08T04:21:30Z,42.805,6.029,13.2973,4.59979,2470.077,2020-9-08T06:22:21Z
2020-09-08T04:24:33Z,42.805,6.029,13.2975,4.59977,2470.087,2020-9-08T06:25:24Z
2020-09-08T04:27:35Z,42.805,6.029,13.2976,4.59976,2470.11,2020-9-08T06:28:26Z
2020-09-08T04:30:39Z,42.805,6.029,13.2974,4.59974,2470.077,2020-9-08T06:31:30Z
2020-09-08T04:33:42Z,42.805,6.029,13.2971,4.59974,2470.087,2020-9-08T06:34:33Z
2020-09-08T04:36:46Z,42.805,6.029,13.2971,4.59976,2470.087,2020-9-08T06:37:37Z
2020-09-08T04:39:49Z,42.805,6.029,13.2974,4.59976,2470.087,2020-9-08T06:40:40Z
2020-09-08T04:42:52Z,42.805,6.029,13.2971,4.59972,2470.063,2020-9-08T06:43:43Z
2020-09-08T04:45:56Z,42.805,6.029,13.2976,4.59973,2470.1,2020-9-08T06:46:47Z
2020-09-08T04:49:01Z,42.805,6.029,13.2970,4.59974,2470.063,2020-9-08T06:49:52Z
2020-09-08T04:52:02Z,42.805,6.029,13.2968,4.59973,2470.1,2020-9-08T06:52:53Z
2020-09-08T04:55:04Z,42.805,6.029,13.2974,4.59973,2470.1,2020-9-08T06:55:56Z
2020-09-08T04:58:08Z,42.805,6.029,13.2974,4.59973,2470.077,2020-9-08T06:58:59Z
2020-09-08T05:01:11Z,42.805,6.029,13.2975,4.59973,2470.11,2020-9-08T07:02:02Z
2020-09-08T05:04:14Z,42.805,6.029,13.2971,4.59973,2470.063,2020-9-08T07:05:05Z
2020-09-08T05:07:18Z,42.805,6.029,13.2971,4.59973,2470.1,2020-9-08T07:08:09Z
2020-09-08T05:10:21Z,42.805,6.029,13.2974,4.59974,2470.11,2020-9-08T07:11:12Z
2020-09-08T05:13:24Z,42.805,6.029,13.2971,4.59976,2470.124,2020-9-08T07:14:15Z
2020-09-08T05:16:27Z,42.805,6.029,13.2975,4.59973,2470.063,2020-9-08T07:17:18Z
2020-09-08T05:19:31Z,42.805,6.029,13.2974,4.59972,2470.11,2020-9-08T07:20:22Z
2020-09-08T05:22:34Z,42.805,6.029,13.2968,4.59973,2470.087,2020-9-08T07:23:25Z
2020-09-08T05:25:37Z,42.805,6.029,13.2969,4.59973,2470.087,2020-9-08T07:26:28Z
2020-09-08T05:28:41Z,42.805,6.029,13.2971,4.59973,2470.11,2020-9-08T07:29:32Z
2020-09-08T05:31:44Z,42.805,6.029,13.2972,4.59978,2470.1,2020-9-08T07:32:35Z
2020-09-08T05:34:45Z,42.805,6.029,13.2976,4.59978,2470.063,2020-9-08T07:35:36Z
2020-09-08T05:37:49Z,42.805,6.029,13.2974,4.59976,2470.073,2020-9-08T07:38:40Z
2020-09-08T05:40:52Z,42.805,6.029,13.2968,4.59976,2470.087,2020-9-08T07:41:43Z
2020-09-08T05:43:57Z,42.805,6.029,13.2971,4.59974,2470.11,2020-9-08T07:44:48Z
2020-09-08T05:46:58Z,42.805,6.029,13.2971,4.59973,2470.1,2020-9-08T07:47:50Z
2020-09-08T05:50:01Z,42.805,6.029,13.2972,4.59974,2470.087,2020-9-08T07:50:52Z
2020-09-08T05:53:04Z,42.805,6.029,13.2976,4.59975,2470.087,2020-9-08T07:53:56Z
2020-09-08T05:56:08Z,42.805,6.029,13.2974,4.59975,2470.11,2020-9-08T07:56:59Z
2020-09-08T05:59:11Z,42.805,6.029,13.2971,4.59973,2470.077,2020-9-08T08:00:02Z
2020-09-08T06:02:14Z,42.805,6.029,13.2971,4.59976,2470.087,2020-9-08T08:03:06Z
2020-09-08T06:05:18Z,42.805,6.029,13.2976,4.59978,2470.1,2020-9-08T08:06:09Z
2020-09-08T06:08:19Z,42.805,6.029,13.2973,4.59981,2470.04,2020-9-08T08:09:11Z
2020-09-08T06:11:24Z,42.805,6.029,13.2971,4.59972,2470.077,2020-9-08T08:12:15Z
2020-09-08T06:14:28Z,42.805,6.029,13.2976,4.59973,2470.04,2020-9-08T08:15:19Z
2020-09-08T06:17:32Z,42.805,6.029,13.2974,4.59976,2470.077,2020-9-08T08:18:23Z
2020-09-08T06:20:35Z,42.805,6.029,13.2971,4.59978,2470.077,2020-9-08T08:21:26Z
2020-09-08T06:23:37Z,42.805,6.029,13.2973,4.59973,2470.11,2020-9-08T08:24:28Z
2020-09-08T06:26:40Z,42.805,6.029,13.2974,4.59979,2470.11,2020-9-08T08:27:32Z
2020-09-08T06:29:44Z,42.805,6.029,13.2973,4.59973,2470.087,2020-9-08T08:30:35Z
2020-09-08T06:32:47Z,42.805,6.029,13.2971,4.59973,2470.087,2020-9-08T08:33:38Z
2020-09-08T06:35:51Z,42.805,6.029,13.2969,4.59973,2470.11,2020-9-08T08:36:43Z
2020-09-08T06:38:55Z,42.805,6.029,13.2971,4.59973,2470.087,2020-9-08T08:39:46Z
2020-09-08T06:41:59Z,42.805,6.029,13.2971,4.59973,2470.11,2020-9-08T08:42:50Z
2020-09-08T06:45:02Z,42.805,6.029,13.2969,4.59973,2470.133,2020-9-08T08:45:53Z
2020-09-08T06:48:06Z,42.805,6.029,13.2971,4.59980,2470.11,2020-9-08T08:48:57Z
2020-09-08T06:51:10Z,42.805,6.029,13.2971,4.59982,2470.087,2020-9-08T08:52:01Z
2020-09-08T06:54:14Z,42.805,6.029,13.2971,4.59978,2470.11,2020-9-08T08:55:05Z
2020-09-08T06:57:15Z,42.805,6.029,13.2971,4.59974,2470.087,2020-9-08T08:58:07Z
2020-09-08T07:00:17Z,42.805,6.029,13.2968,4.59976,2470.133,2020-9-08T09:01:08Z
2020-09-08T07:03:19Z,42.805,6.029,13.2970,4.59977,2470.087,2020-9-08T09:04:10Z
2020-09-08T07:06:22Z,42.805,6.029,13.2970,4.59976,2470.11,2020-9-08T09:07:13Z
2020-09-08T07:09:26Z,42.805,6.029,13.2968,4.59975,2470.133,2020-9-08T09:10:17Z
2020-09-08T07:12:29Z,42.805,6.029,13.2974,4.59975,2470.124,2020-9-08T09:13:20Z
2020-09-08T07:15:32Z,42.805,6.029,13.2971,4.59973,2470.147,2020-9-08T09:16:23Z
2020-09-08T07:18:34Z,42.805,6.029,13.2964,4.59974,2470.124,2020-9-08T09:19:25Z
2020-09-08T07:21:38Z,42.805,6.029,13.2968,4.59973,2470.147,2020-9-08T09:22:30Z
2020-09-08T07:24:41Z,42.805,6.029,13.2971,4.59978,2470.147,2020-9-08T09:25:31Z
2020-09-08T07:27:41Z,42.805,6.029,13.2970,4.59978,2470.124,2020-9-08T09:28:33Z
2020-09-08T07:30:45Z,42.805,6.029,13.2974,4.59976,2470.133,2020-9-08T09:31:36Z
2020-09-08T07:33:48Z,42.805,6.029,13.2968,4.59974,2470.133,2020-9-08T09:34:39Z
2020-09-08T07:36:50Z,42.805,6.029,13.2971,4.59981,2470.133,2020-9-08T09:37:41Z
2020-09-08T07:39:52Z,42.805,6.029,13.2971,4.59983,2470.11,2020-9-08T09:40:43Z
2020-09-08T07:42:56Z,42.805,6.029,13.2970,4.59978,2470.156,2020-9-08T09:43:47Z
2020-09-08T07:45:59Z,42.805,6.029,13.2971,4.59974,2470.133,2020-9-08T09:46:50Z
2020-09-08T07:49:01Z,42.805,6.029,13.2971,4.59975,2470.133,2020-9-08T09:49:53Z
2020-09-08T07:52:06Z,42.805,6.029,13.2971,4.59981,2470.194,2020-9-08T09:52:58Z
2020-09-08T07:55:11Z,42.805,6.029,13.2970,4.59980,2470.156,2020-9-08T09:56:02Z
2020-09-08T07:58:12Z,42.805,6.029,13.2973,4.59978,2470.133,2020-9-08T09:59:04Z
2020-09-08T08:01:14Z,42.805,6.029,13.2975,4.59978,2470.18,2020-9-08T10:02:05Z
2020-09-08T08:04:18Z,42.805,6.029,13.2970,4.59981,2470.18,2020-9-08T10:05:09Z
2020-09-08T08:07:22Z,42.805,6.029,13.2970,4.59979,2470.156,2020-9-08T10:08:13Z
2020-09-08T08:10:26Z,42.805,6.029,13.2971,4.59980,2470.133,2020-9-08T10:11:17Z
2020-09-08T08:13:28Z,42.805,6.029,13.2974,4.59977,2470.171,2020-9-08T10:14:19Z
2020-09-08T08:16:31Z,42.805,6.029,13.2972,4.59983,2470.147,2020-9-08T10:17:22Z
2020-09-08T08:19:34Z,42.805,6.029,13.2969,4.59977,2470.156,2020-9-08T10:20:25Z
2020-09-08T08:22:36Z,42.805,6.029,13.2969,4.59974,2470.156,2020-9-08T10:23:27Z
2020-09-08T08:25:40Z,42.805,6.029,13.2972,4.59974,2470.133,2020-9-08T10:26:31Z
2020-09-08T08:28:42Z,42.805,6.029,13.2974,4.59979,2470.156,2020-9-08T10:29:33Z
2020-09-08T08:31:44Z,42.805,6.029,13.2971,4.59977,2470.156,2020-9-08T10:32:35Z
2020-09-08T08:34:46Z,42.805,6.029,13.2971,4.59989,2470.171,2020-9-08T10:35:37Z
2020-09-08T08:37:49Z,42.805,6.029,13.2972,4.59980,2470.18,2020-9-08T10:38:40Z
2020-09-08T08:40:52Z,42.805,6.029,13.2971,4.59976,2470.156,2020-9-08T10:41:44Z
2020-09-08T08:43:56Z,42.805,6.029,13.2971,4.59980,2470.147,2020-9-08T10:44:47Z
2020-09-08T08:47:00Z,42.805,6.029,13.2972,4.59994,2470.203,2020-9-08T10:47:51Z
2020-09-08T08:50:03Z,42.805,6.029,13.2968,4.59984,2470.203,2020-9-08T10:50:54Z
2020-09-08T08:53:05Z,42.805,6.029,13.2972,4.59990,2470.147,2020-9-08T10:53:56Z
2020-09-08T08:56:09Z,42.805,6.029,13.2969,4.59982,2470.203,2020-9-08T10:57:00Z
2020-09-08T08:59:12Z,42.805,6.029,13.2974,4.60002,2470.18,2020-9-08T11:00:03Z
2020-09-08T09:02:15Z,42.805,6.029,13.2971,4.59978,2470.217,2020-9-08T11:03:06Z
2020-09-08T09:05:19Z,42.805,6.029,13.2974,4.59976,2470.18,2020-9-08T11:06:10Z
2020-09-08T09:08:22Z,42.805,6.029,13.2975,4.59981,2470.194,2020-9-08T11:09:13Z
2020-09-08T09:11:27Z,42.805,6.029,13.2969,4.59979,2470.171,2020-9-08T11:12:18Z
2020-09-08T09:14:29Z,42.805,6.029,13.2972,4.59992,2470.18,2020-9-08T11:15:21Z
2020-09-08T09:17:31Z,42.805,6.029,13.2971,4.59994,2470.217,2020-9-08T11:18:22Z
2020-09-08T09:20:35Z,42.805,6.029,13.2972,4.59985,2470.171,2020-9-08T11:21:26Z
2020-09-08T09:23:40Z,42.805,6.029,13.2974,4.59990,2470.217,2020-9-08T11:24:31Z
2020-09-08T09:26:45Z,42.805,6.029,13.2973,4.59995,2470.227,2020-9-08T11:27:36Z
2020-09-08T09:29:46Z,42.805,6.029,13.2971,4.59993,2470.227,2020-9-08T11:30:37Z
2020-09-08T09:32:49Z,42.805,6.029,13.2967,4.59980,2470.194,2020-9-08T11:33:40Z
2020-09-08T09:35:53Z,42.805,6.029,13.2970,4.59996,2470.217,2020-9-08T11:36:44Z
2020-09-08T09:38:57Z,42.805,6.029,13.2972,4.59992,2470.227,2020-9-08T11:39:48Z
2020-09-08T09:42:01Z,42.805,6.029,13.2972,4.60003,2470.24,2020-9-08T11:42:52Z
2020-09-08T09:45:04Z,42.805,6.029,13.2973,4.60004,2470.203,2020-9-08T11:45:55Z
2020-09-08T09:48:05Z,42.805,6.029,13.2975,4.59991,2470.203,2020-9-08T11:48:56Z
2020-09-08T09:51:10Z,42.805,6.029,13.2968,4.59996,2470.203,2020-9-08T11:52:01Z
2020-09-08T09:54:11Z,42.805,6.029,13.2973,4.59991,2470.227,2020-9-08T11:55:02Z
2020-09-08T09:57:13Z,42.805,6.029,13.2970,4.59991,2470.217,2020-9-08T11:58:05Z
2020-09-08T10:00:18Z,42.805,6.029,13.2971,4.59992,2470.203,2020-9-08T12:01:09Z
2020-09-08T10:03:20Z,42.805,6.029,13.2971,4.59994,2470.227,2020-9-08T12:04:11Z
2020-09-08T10:06:23Z,42.805,6.029,13.2971,4.59992,2470.24,2020-9-08T12:07:14Z
2020-09-08T10:09:25Z,42.805,6.029,13.2973,4.59999,2470.24,2020-9-08T12:10:16Z
2020-09-08T10:12:29Z,42.805,6.029,13.2973,4.59988,2470.25,2020-9-08T12:13:20Z
2020-09-08T10:15:32Z,42.805,6.029,13.2975,4.59990,2470.203,2020-9-08T12:16:24Z
2020-09-08T10:18:34Z,42.805,6.029,13.2971,4.59989,2470.227,2020-9-08T12:19:26Z
2020-09-08T10:21:39Z,42.805,6.029,13.2972,4.59991,2470.203,2020-9-08T12:22:30Z
2020-09-08T10:24:43Z,42.805,6.029,13.2974,4.59993,2470.227,2020-9-08T12:25:34Z
2020-09-08T10:27:46Z,42.805,6.029,13.2970,4.59988,2470.24,2020-9-08T12:28:38Z
2020-09-08T10:30:50Z,42.805,6.029,13.2975,4.59991,2470.24,2020-9-08T12:31:41Z
2020-09-08T10:33:53Z,42.805,6.029,13.2972,4.59995,2470.227,2020-9-08T12:34:44Z
2020-09-08T10:36:57Z,42.805,6.029,13.2971,4.59998,2470.24,2020-9-08T12:37:48Z
2020-09-08T10:40:01Z,42.805,6.029,13.2970,4.60001,2470.227,2020-9-08T12:40:52Z
2020-09-08T10:43:04Z,42.805,6.029,13.2973,4.59994,2470.203,2020-9-08T12:43:55Z
2020-09-08T10:46:10Z,42.805,6.029,13.2971,4.59994,2470.227,2020-9-08T12:46:59Z
2020-09-08T10:49:10Z,42.805,6.029,13.2971,4.59993,2470.227,2020-9-08T12:50:01Z
2020-09-08T10:52:12Z,42.805,6.029,13.2971,4.59994,2470.203,2020-9-08T12:53:03Z
2020-09-08T10:55:17Z,42.805,6.029,13.2973,4.60002,2470.227,2020-9-08T12:56:08Z
2020-09-08T10:58:18Z,42.805,6.029,13.2971,4.60014,2470.217,2020-9-08T12:59:10Z
2020-09-08T11:01:22Z,42.805,6.029,13.2971,4.60019,2470.194,2020-9-08T13:02:13Z
2020-09-08T11:04:26Z,42.805,6.029,13.2974,4.60015,2470.24,2020-9-08T13:05:17Z
2020-09-08T11:07:28Z,42.805,6.029,13.2973,4.60016,2470.194,2020-9-08T13:08:20Z
2020-09-08T11:10:31Z,42.805,6.029,13.2983,4.60011,2470.18,2020-9-08T13:11:22Z
2020-09-08T11:13:33Z,42.805,6.029,13.2980,4.60025,2470.24,2020-9-08T13:14:24Z
2020-09-08T11:16:37Z,42.805,6.029,13.3000,4.60044,2470.217,2020-9-08T13:17:28Z
2020-09-08T11:19:41Z,42.805,6.029,13.2986,4.60007,2470.217,2020-9-08T13:20:32Z
2020-09-08T11:22:45Z,42.805,6.029,13.3031,4.60062,2470.217,2020-9-08T13:23:36Z
2020-09-08T11:25:49Z,42.805,6.029,13.3009,4.60024,2470.217,2020-9-08T13:26:40Z
2020-09-08T11:28:52Z,42.805,6.029,13.3022,4.60026,2470.203,2020-9-08T13:29:43Z
2020-09-08T11:31:57Z,42.805,6.029,13.2973,4.60004,2470.217,2020-9-08T13:32:48Z
2020-09-08T11:35:01Z,42.805,6.029,13.2974,4.60007,2470.227,2020-9-08T13:35:52Z
2020-09-08T11:38:06Z,42.805,6.029,13.3021,4.60011,2470.156,2020-9-08T13:38:57Z
2020-09-08T11:41:09Z,42.805,6.029,13.2975,4.60010,2470.18,2020-9-08T13:42:00Z
2020-09-08T11:44:13Z,42.805,6.029,13.2973,4.60016,2470.18,2020-9-08T13:45:04Z
2020-09-08T11:47:16Z,42.805,6.029,13.2975,4.60009,2470.203,2020-9-08T13:48:07Z
2020-09-08T11:50:20Z,42.805,6.029,13.2982,4.60009,2470.18,2020-9-08T13:51:11Z
2020-09-08T11:53:22Z,42.805,6.029,13.3003,4.60007,2470.203,2020-9-08T13:54:13Z
2020-09-08T11:56:24Z,42.805,6.029,13.3018,4.60009,2470.156,2020-9-08T13:57:15Z
2020-09-08T11:59:27Z,42.805,6.029,13.3009,4.60022,2470.217,2020-9-08T14:00:18Z
2020-09-08T12:02:32Z,42.805,6.029,13.3010,4.60007,2470.194,2020-9-08T14:03:23Z
2020-09-08T12:05:33Z,42.805,6.029,13.3009,4.60013,2470.203,2020-9-08T14:06:24Z
2020-09-08T12:08:37Z,42.805,6.029,13.3045,4.60033,2470.171,2020-9-08T14:09:28Z
2020-09-08T12:11:40Z,42.805,6.029,13.3027,4.60007,2470.217,2020-9-08T14:12:31Z
2020-09-08T12:14:44Z,42.805,6.029,13.3031,4.60014,2470.171,2020-9-08T14:15:35Z
2020-09-08T12:17:47Z,42.805,6.029,13.3030,4.60019,2470.194,2020-9-08T14:18:38Z
2020-09-08T12:20:51Z,42.805,6.029,13.2982,4.60016,2470.18,2020-9-08T14:21:42Z
2020-09-08T12:23:55Z,42.805,6.029,13.2971,4.60009,2470.156,2020-9-08T14:24:46Z
2020-09-08T12:26:56Z,42.805,6.029,13.2974,4.60008,2470.217,2020-9-08T14:27:47Z
2020-09-08T12:30:01Z,42.805,6.029,13.2972,4.59993,2470.156,2020-9-08T14:30:52Z
2020-09-08T12:33:04Z,42.805,6.029,13.2972,4.59995,2470.18,2020-9-08T14:33:55Z
2020-09-08T12:36:08Z,42.805,6.029,13.2970,4.59986,2470.156,2020-9-08T14:36:59Z
2020-09-08T12:39:11Z,42.805,6.029,13.2972,4.59982,2470.171,2020-9-08T14:40:02Z
2020-09-08T12:42:15Z,42.805,6.029,13.2974,4.59988,2470.194,2020-9-08T14:43:06Z
2020-09-08T12:45:18Z,42.805,6.029,13.2972,4.59987,2470.171,2020-9-08T14:46:09Z
2020-09-08T12:48:23Z,42.805,6.029,13.2977,4.59986,2470.156,2020-9-08T14:49:14Z
2020-09-08T12:51:26Z,42.805,6.029,13.2971,4.59986,2470.171,2020-9-08T14:52:17Z
2020-09-08T12:54:29Z,42.805,6.029,13.2974,4.59981,2470.171,2020-9-08T14:55:21Z
2020-09-08T12:57:33Z,42.805,6.029,13.2974,4.59983,2470.133,2020-9-08T14:58:24Z
2020-09-08T13:00:36Z,42.805,6.029,13.2971,4.59978,2470.147,2020-9-08T15:01:27Z
2020-09-08T13:03:38Z,42.805,6.029,13.2974,4.59981,2470.133,2020-9-08T15:04:29Z
2020-09-08T13:06:42Z,42.805,6.029,13.2971,4.59982,2470.18,2020-9-08T15:07:33Z
2020-09-08T13:09:45Z,42.805,6.029,13.2974,4.59981,2470.18,2020-9-08T15:10:36Z
2020-09-08T13:12:49Z,42.805,6.029,13.2972,4.59979,2470.133,2020-9-08T15:13:40Z
2020-09-08T13:15:50Z,42.805,6.029,13.2972,4.59979,2470.18,2020-9-08T15:16:41Z
2020-09-08T13:18:54Z,42.805,6.029,13.2973,4.59980,2470.156,2020-9-08T15:19:45Z
2020-09-08T13:21:57Z,42.805,6.029,13.2974,4.59980,2470.156,2020-9-08T15:22:48Z
2020-09-08T13:24:59Z,42.805,6.029,13.2973,4.59982,2470.143,2020-9-08T15:25:50Z
2020-09-08T13:28:01Z,42.805,6.029,13.2970,4.59983,2470.18,2020-9-08T15:28:52Z
2020-09-08T13:31:03Z,42.805,6.029,13.2978,4.59983,2470.171,2020-9-08T15:31:54Z
2020-09-08T13:34:05Z,42.805,6.029,13.2974,4.59982,2470.156,2020-9-08T15:34:56Z
2020-09-08T13:37:08Z,42.805,6.029,13.2974,4.59981,2470.171,2020-9-08T15:37:59Z
2020-09-08T13:40:11Z,42.805,6.029,13.2974,4.59981,2470.147,2020-9-08T15:41:02Z
2020-09-08T13:43:15Z,42.805,6.029,13.2969,4.59978,2470.133,2020-9-08T15:44:06Z
2020-09-08T13:46:18Z,42.805,6.029,13.2974,4.59978,2470.133,2020-9-08T15:47:09Z
2020-09-08T13:49:23Z,42.805,6.029,13.2974,4.59980,2470.133,2020-9-08T15:50:14Z
2020-09-08T13:52:27Z,42.805,6.029,13.2974,4.59978,2470.133,2020-9-08T15:53:18Z
2020-09-08T13:55:32Z,42.805,6.029,13.2972,4.59979,2470.156,2020-9-08T15:56:23Z
2020-09-08T13:58:36Z,42.805,6.029,13.2973,4.59979,2470.124,2020-9-08T15:59:27Z
2020-09-08T14:01:38Z,42.805,6.029,13.2972,4.59979,2470.147,2020-9-08T16:02:29Z
2020-09-08T14:04:39Z,42.805,6.029,13.2971,4.59980,2470.133,2020-9-08T16:05:30Z
2020-09-08T14:07:42Z,42.805,6.029,13.2974,4.59981,2470.147,2020-9-08T16:08:33Z
2020-09-08T14:10:45Z,42.805,6.029,13.2974,4.59978,2470.133,2020-9-08T16:11:36Z
2020-09-08T14:13:47Z,42.805,6.029,13.2970,4.59980,2470.133,2020-9-08T16:14:38Z
2020-09-08T14:16:49Z,42.805,6.029,13.2973,4.59978,2470.171,2020-9-08T16:17:40Z
2020-09-08T14:19:53Z,42.805,6.029,13.2972,4.59978,2470.147,2020-9-08T16:20:45Z
2020-09-08T14:22:58Z,42.805,6.029,13.2971,4.59978,2470.133,2020-9-08T16:23:49Z
2020-09-08T14:26:02Z,42.805,6.029,13.2974,4.59978,2470.11,2020-9-08T16:26:53Z
2020-09-08T14:29:06Z,42.805,6.029,13.2974,4.59978,2470.133,2020-9-08T16:29:57Z
2020-09-08T14:32:07Z,42.805,6.029,13.2972,4.59978,2470.133,2020-9-08T16:32:58Z
2020-09-08T14:35:10Z,42.805,6.029,13.2972,4.59980,2470.156,2020-9-08T16:36:01Z
2020-09-08T14:38:15Z,42.805,6.029,13.2977,4.59979,2470.133,2020-9-08T16:39:06Z
2020-09-08T14:41:17Z,42.805,6.029,13.2973,4.59978,2470.147,2020-9-08T16:42:08Z
2020-09-08T14:44:18Z,42.805,6.029,13.2977,4.59977,2470.133,2020-9-08T16:45:09Z
2020-09-08T14:47:23Z,42.805,6.029,13.2972,4.59978,2470.133,2020-9-08T16:48:14Z
2020-09-08T14:50:27Z,42.805,6.029,13.2973,4.59978,2470.156,2020-9-08T16:51:18Z
2020-09-08T14:53:32Z,42.805,6.029,13.2971,4.59976,2470.133,2020-9-08T16:54:23Z
2020-09-08T14:56:35Z,42.805,6.029,13.2971,4.59978,2470.133,2020-9-08T16:57:27Z
2020-09-08T14:59:39Z,42.805,6.029,13.2969,4.59981,2470.133,2020-9-08T17:00:30Z
2020-09-08T15:02:42Z,42.805,6.029,13.2971,4.59979,2470.11,2020-9-08T17:03:34Z
2020-09-08T15:05:47Z,42.805,6.029,13.2972,4.59977,2470.11,2020-9-08T17:06:38Z
2020-09-08T15:08:48Z,42.805,6.029,13.2974,4.59976,2470.133,2020-9-08T17:09:39Z
2020-09-08T15:11:53Z,42.805,6.029,13.2971,4.59977,2470.133,2020-9-08T17:12:44Z
2020-09-08T15:14:55Z,42.805,6.029,13.2973,4.59978,2470.156,2020-9-08T17:15:46Z